Regional Weather Roundup
Issued by NWS

Home | Current Version | Previous Version | Text Only | Print | Product List | Glossary Off
Versions: 1 2 3 4 5 6 7 8 9 10 11 12 13 14 15 16 17 18 19 20 21 22 23 24 25 26 27 28 29 30 31 32 33 34 35 36 37 38 39 40 41 42 43 44 45 46 47 48 49 50

000
ASUS43 KLOT 241303
RWRIL

ILLINOIS REGIONAL WEATHER ROUNDUP
NATIONAL WEATHER SERVICE CHICAGO/ROMEOVILLE IL
800 AM CDT WED MAY 24 2017

NOTE: "FAIR" INDICATES FEW OR NO CLOUDS BELOW 12,000 FEET WITH NO
SIGNIFICANT WEATHER AND/OR OBSTRUCTIONS TO VISIBILITY.

* THESE STATIONS ARE NOT UNDER NWS QUALITY CONTROL. THEY ALSO MAY NOT
  REPORT WEATHER SUCH AS PRECIPITATION OR FOG.

ILZ001-002-007-009-015-016-024-241400-
NORTHWEST ILLINOIS

CITY           SKY/WX    TMP DP  RH WIND       PRES   REMARKS
MOLINE         CLOUDY    54  50  86 NE5       29.62S FOG
STERLING*      CLOUDY    54  53  97 N10       29.62F
SAVANNA*       CLOUDY    53  52  95 N6        29.63S
$$

ILZ003-004-008-010-011-017-018-241400-
NORTH CENTRAL ILLINOIS

CITY           SKY/WX    TMP DP  RH WIND       PRES   REMARKS
ROCKFORD       CLOUDY    53  51  93 N10       29.65R FOG
FREEPORT*      CLOUDY    50  49  99 N8        29.65S FOG
ROCHELLE*      LGT RAIN  53  52  98 N8        29.61F
DE KALB*       CLOUDY    54  53  96 NE10      29.61S FOG
PERU*          CLOUDY    53  51  94 N7        29.60S FOG
$$

ILZ005-006-012>014-019>023-241400-
NORTHEAST ILLINOIS

CITY           SKY/WX    TMP DP  RH WIND       PRES   REMARKS
CHICAGO-OHARE  LGT RAIN  55  52  89 N12       29.58S
CHICAGO-MIDWAY LGT RAIN  55  53  93 NE12      29.57F
AURORA         PTSUNNY   57  54  89 N9        29.59F
LANSING*       CLOUDY    54  54 100 N7        29.58S FOG
JOLIET*        CLOUDY    57  55  92 NE7       29.59R
WAUKEGAN       LGT RAIN  52  52 100 N9G18     29.59F FOG
DUPAGE AIRPORT CLOUDY    55  54  96 NE13      29.57F
KANKAKEE*      CLOUDY    56  55  97 CALM      29.57S FOG
WHEELING       CLOUDY    53  53 100 N10       29.60S
MORRIS*        CLOUDY    56  53  91 CALM      29.58S
ROMEOVILLE*    CLOUDY    55  55 100 NE10      29.58S
NORTHERLY ISL    N/A     52  50  93 N13         N/A
$$

LMZ740>746-241400-
SOUTHERN LAKE MICHIGAN

STATION/POSITION SKY/WX   TEMP    WIND        PRES    VSBY  WAVE
                          AIR SEA DIR/SP/G                  HT/PER
                          (F)     (DEG/KT/KT) (MB)    (MI)  (FT/S)
SOUTHERN BUOY              48 45   10/ 14/ 16 1002.8          1/ 3
WILMETTE HARBOR            49 53                N/A           3/ 3
HARRISON CRIB              53      10/ 17/ 19   N/A
BURNHAM HARBOR             52     350/ 11/ 15   N/A
CALUMET HARBOR             52     340/  9/ 13 1001.2F
BURNS HARBOR               53      40/ 17/ 20 1001.4F
MICHIGAN CITY              52      10/ 20/ 22   N/A
MICHIGAN CITY 6N           52 53   30/ 16/ 19   N/A           3/ 4
ST. JOSEPH                 54 58   20/ 12/ 16 1001.9R         2/ 3
$$

ILZ025>027-034>036-040-047-049-050-058-095>099-241400-
WEST-CENTRAL ILLINOIS

CITY           SKY/WX    TMP DP  RH WIND       PRES   REMARKS
QUINCY         MOSUNNY   51  49  92 NW9       29.62S
GALESBURG*     CLOUDY    52  49  92 N5        29.61S
MACOMB*        CLOUDY    52  50  95 N7        29.63F
JACKSONVILLE*  SUNNY     53  50  89 NW8       29.59F
PITTSFIELD*    PTSUNNY   52  50  92 NW8       29.62S
$$

ILZ028>032-037-038-041>044-048-051>054-059>061-241400-
CENTRAL ILLINOIS

CITY           SKY/WX    TMP DP  RH WIND       PRES   REMARKS
PONTIAC        FOG       54  54  98 NW9       29.59F VSB 3/4
BLOOMINGTON    CLOUDY    53  53 100 N13       29.59F FOG
DECATUR        CLOUDY    54  52  93 N10       29.57F
PEORIA         FOG       53  53 100 NE3       29.60R VSB 3/4
LACON*         CLOUDY    56  52  88 N5        29.59F
LINCOLN*       CLOUDY    56  55  94 N3        29.58F
SPRINGFIELD    MOSUNNY   56  53  90 NW9       29.59F
TAYLORVILLE    CLOUDY    53  52  98 NW8       29.58S FOG
$$

ILZ033-039-045-046-055>057-062-063-241400-
EAST-CENTRAL ILLINOIS

CITY           SKY/WX    TMP DP  RH WIND       PRES   REMARKS
CHAMPAIGN      CLOUDY    57  54  89 N9        29.56F FOG
RANTOUL*       DRIZZLE   58  57  96 N6        29.56S
MATTOON        CLOUDY    57  57 100 NW9       29.54F
PARIS*         DRIZZLE   57  56  96 NW12      29.55F
$$

ILZ079-100>102-241400-
SOUTHWEST ILLINOIS

CITY           SKY/WX    TMP DP  RH WIND       PRES   REMARKS
ALTON          MOSUNNY   54  48  82 NW12      29.60S
BELLEVILLE     SUNNY     56  51  82 NW9       29.59F
CAHOKIA*       SUNNY     58  51  78 NW10      29.59F
SPARTA*        PTSUNNY   56  51  81 NW7       29.59F
$$

ILZ064>066-069>071-074>076-080>082-084>086-088>090-092>094-241400-
SOUTH-CENTRAL ILLINOIS

CITY           SKY/WX    TMP DP  RH WIND       PRES   REMARKS
CARBONDALE     NOT AVBL
CAIRO*         CLOUDY    58  56  93 NW6       29.56S
EFFINGHAM*     CLOUDY    57  56  98 NW9       29.57F
MARION         CLOUDY    59  59 100 NW5       29.56F
MT. VERNON       N/A     56  54  93 VRB3      29.56S
CENTRALIA*     CLOUDY    57  54  91 NW10      29.56F
SALEM*         CLOUDY    56  54  91 N9        29.57S
$$

ILZ067-068-072-073-078-083-087-091-241400-
SOUTHEAST ILLINOIS

CITY           SKY/WX    TMP DP  RH WIND       PRES   REMARKS
LAWRENCEVILLE  LGT RAIN  59  32  36 N7        29.54F
FLORA*         CLOUDY    59  56  89 NW7       29.56S
FAIRFIELD*     CLOUDY    57  57  99 CALM      29.54S
HARRISBURG*    DRIZZLE   57  56  96 NW3       29.55F
ROBINSON*      RAIN      57  56  97 N6        29.55S
CARMI*         LGT RAIN  57  56  97 NW5       29.54S
$$

ABBREVIATIONS USED IN REMARKS
   TC - TEMPERATURE IN CELSIUS
  WCI - WIND CHILL INDEX
   HX - HEAT INDEX
  VSB - VISIBILITY
$$





USA.gov is the U.S. government's official web portal to all federal, state and local government web resources and services.